period_start,C,m1,H,J0,J1,J2,J3,J4,J5,JA,JB,JC,JD,JJ,JK,JN,#
2017-10-09 00:02:13,0.00,0.22,0.00,19.33,22.88,26.09,14.20,45.83,1021.52,2050.01,3421.91,3065.90,3498.00,600.22,606.72,21.59,0000 0000 0000 0000 000000
2017-10-09 00:07:14,0.00,0.22,0.00,19.37,22.89,26.08,14.20,45.99,1021.52,2050.00,3421.80,3065.84,3497.99,599.63,605.99,21.64,0000 0000 0000 0000 000000
2017-10-09 00:12:15,0.02,0.22,0.00,19.36,22.89,26.08,14.12,45.79,1021.51,2050.00,3421.19,3065.32,3497.93,599.91,606.14,21.69,0000 0000 0000 0000 000000
2017-10-09 00:17:17,0.00,0.22,0.00,19.40,22.90,26.09,14.18,45.82,1021.52,2050.00,3421.03,3065.20,3497.81,600.11,606.27,21.74,0000 0000 0000 0000 000000
2017-10-09 00:22:18,0.01,0.22,0.00,19.37,22.91,26.10,14.18,45.83,1021.54,2050.00,3421.00,3065.07,3497.28,600.46,606.76,21.79,0000 0000 0000 0000 000000
2017-10-09 00:27:19,0.00,0.22,0.00,19.41,22.92,26.13,14.18,45.78,1021.62,2050.00,3420.99,3065.03,3497.02,599.86,606.08,21.84,0000 0000 0000 0000 000000
2017-10-09 00:32:21,0.00,0.22,0.00,19.40,22.92,26.13,14.19,45.87,1021.63,2050.00,3420.98,3065.02,3497.00,599.86,606.14,21.89,0000 0000 0000 0000 000000
2017-10-09 00:37:22,0.00,0.22,0.00,19.46,22.93,26.11,14.25,45.79,1021.78,2049.99,3420.63,3065.00,3497.00,599.96,606.16,21.94,0000 0000 0000 0000 000000
2017-10-09 00:42:23,0.01,0.22,0.00,19.43,22.94,26.14,14.20,45.80,1021.90,2049.98,3420.08,3065.00,3496.94,600.04,606.56,21.99,0000 0000 0000 0000 000000
2017-10-09 00:47:24,0.01,0.22,0.00,19.42,22.94,26.15,14.23,45.98,1021.95,2049.97,3420.00,3064.98,3496.43,600.24,606.64,22.04,0000 0000 0000 0000 000000
2017-10-09 00:52:26,-0.00,0.23,0.00,19.42,22.95,26.17,14.19,45.88,1021.98,2049.97,3419.99,3064.95,3496.06,599.97,606.50,22.09,0000 0000 0000 0000 000000
2017-10-09 00:57:27,0.01,0.23,0.00,19.46,22.97,26.17,14.25,45.99,1021.99,2049.93,3419.84,3064.78,3496.00,599.93,606.42,22.14,0000 0000 0000 0000 000000
2017-10-09 01:02:28,0.01,0.23,0.00,19.48,22.97,26.17,14.07,45.78,1021.99,2049.95,3419.59,3064.70,3496.00,599.84,606.15,22.19,0000 0000 0000 0000 000000
2017-10-09 01:07:30,0.01,0.23,0.00,19.48,22.98,26.22,14.16,45.96,1021.99,2049.86,3419.07,3064.25,3495.99,599.88,606.26,22.24,0000 0000 0000 0000 000000
2017-10-09 01:12:31,0.00,0.23,0.00,19.50,22.99,26.20,14.23,45.77,1021.99,2049.84,3419.00,3064.05,3495.86,600.15,606.57,22.29,0000 0000 0000 0000 000000
2017-10-09 01:17:32,0.00,0.23,0.00,19.50,22.99,26.22,14.17,45.86,1021.99,2049.67,3418.99,3064.01,3495.24,600.28,606.67,22.34,0000 0000 0000 0000 000000
2017-10-09 01:22:33,-0.03,0.23,0.00,19.54,23.02,26.21,14.16,45.91,1021.99,2049.39,3418.98,3064.00,3495.01,599.90,606.19,22.39,0000 0000 0000 0000 000000
2017-10-09 01:27:35,-0.02,0.23,0.00,19.56,23.02,26.22,14.15,46.02,1021.99,2049.25,3418.95,3064.00,3495.00,600.09,606.33,22.44,0000 0000 0000 0000 000000
2017-10-09 01:32:36,-0.00,0.22,0.00,19.58,23.03,26.20,14.15,45.90,1021.99,2049.08,3418.87,3063.99,3495.00,599.63,605.72,22.49,0000 0000 0000 0000 000000
2017-10-09 01:37:37,0.01,0.22,0.00,19.55,23.04,26.21,14.17,45.88,1021.99,2049.05,3418.61,3063.99,3494.99,599.98,606.30,22.54,0000 0000 0000 0000 000000
2017-10-09 01:42:39,-0.00,0.22,0.00,19.54,23.04,26.27,14.11,45.84,1021.99,2049.02,3418.28,3063.99,3494.98,599.84,606.19,22.59,0000 0000 0000 0000 000000
2017-10-09 01:47:40,0.00,0.22,0.00,19.55,23.06,26.27,14.17,45.88,1021.99,2049.01,3418.15,3063.98,3494.86,600.01,606.27,22.64,0000 0000 0000 0000 000000
2017-10-09 01:52:41,0.01,0.22,0.00,19.57,23.07,26.28,14.17,45.92,1021.99,2049.00,3418.03,3063.98,3494.45,600.16,606.26,22.69,0000 0000 0000 0000 000000
2017-10-09 01:57:42,0.00,0.23,0.00,19.62,23.08,26.26,14.12,45.90,1021.99,2049.00,3418.01,3063.94,3494.13,599.86,605.95,22.74,0000 0000 0000 0000 000000
2017-10-09 02:02:43,0.00,0.23,0.00,19.61,23.09,26.25,14.12,45.89,1021.99,2049.00,3418.00,3063.89,3494.02,599.75,605.69,22.79,0000 0000 0000 0000 000000
2017-10-09 02:07:45,-0.00,0.23,0.00,19.63,23.10,26.29,14.16,45.89,1021.99,2049.00,3418.01,3063.90,3494.02,600.33,606.42,22.84,0000 0000 0000 0000 000000
2017-10-09 02:12:46,0.00,0.23,0.00,19.66,23.12,26.30,14.15,45.91,1022.00,2048.99,3418.00,3063.81,3494.01,600.00,606.09,22.89,0000 0000 0000 0000 000000
2017-10-09 02:17:47,0.01,0.23,0.00,19.72,23.12,26.32,14.22,45.91,1022.02,2048.96,3418.00,3063.29,3493.99,600.51,606.39,22.94,0000 0000 0000 0000 000000
2017-10-09 02:22:48,0.00,0.23,0.00,19.65,23.14,26.33,14.16,45.75,1022.15,2048.96,3417.95,3063.04,3493.98,600.18,606.29,22.99,0000 0000 0000 0000 000000
2017-10-09 02:27:49,0.01,0.23,0.00,19.73,23.14,26.37,14.19,45.83,1022.25,2048.96,3417.55,3063.01,3493.94,599.93,605.95,23.04,0000 0000 0000 0000 000000
2017-10-09 02:32:50,0.01,0.23,0.00,19.71,23.16,26.36,14.14,45.83,1022.34,2048.96,3417.12,3063.00,3493.58,599.78,605.99,23.09,0000 0000 0000 0000 000000
2017-10-09 02:37:51,-0.02,0.23,0.00,19.73,23.17,26.31,14.06,45.73,1022.40,2048.76,3417.01,3063.00,3493.05,599.56,605.64,23.14,0000 0000 0000 0000 000000
2017-10-09 02:42:53,-0.02,0.23,0.00,19.71,23.18,26.30,14.20,45.70,1022.44,2048.47,3417.00,3062.98,3493.00,600.51,606.57,23.19,0000 0000 0000 0000 000000
2017-10-09 02:47:54,-0.02,0.22,0.00,19.72,23.19,26.41,14.18,45.87,1022.43,2048.17,3417.00,3062.95,3493.00,600.28,606.41,23.24,0000 0000 0000 0000 000000
2017-10-09 02:52:55,0.00,0.22,0.00,19.73,23.20,26.40,14.25,45.77,1022.33,2048.04,3416.95,3062.79,3492.98,600.61,606.76,23.29,0000 0000 0000 0000 000000
2017-10-09 02:57:57,0.00,0.22,0.00,19.74,23.22,26.45,14.08,45.67,1022.16,2048.05,3416.93,3062.81,3492.97,599.72,605.76,23.34,0000 0000 0000 0000 000000
2017-10-09 03:02:58,0.01,0.22,0.00,19.78,23.22,26.42,14.15,45.72,1022.01,2048.05,3416.77,3062.70,3492.89,599.96,605.73,23.39,0000 0000 0000 0000 000000
2017-10-09 03:07:59,0.03,0.23,0.00,19.76,23.24,26.40,14.15,45.71,1021.99,2048.00,3416.12,3062.13,3492.32,600.07,606.03,23.44,0000 0000 0000 0000 000000
2017-10-09 03:13:01,-0.00,0.23,0.00,19.82,23.24,26.44,14.13,45.67,1021.99,2048.01,3416.01,3062.01,3492.04,599.97,605.75,23.49,0000 0000 0000 0000 000000
2017-10-09 03:18:02,0.00,0.23,0.00,19.77,23.26,26.45,14.17,45.73,1021.99,2048.00,3416.00,3062.00,3492.00,599.98,605.78,23.54,0000 0000 0000 0000 000000
2017-10-09 03:23:03,0.00,0.23,0.00,19.81,23.27,26.49,14.24,45.86,1021.99,2048.01,3416.01,3062.01,3492.00,600.19,605.84,23.59,0000 0000 0000 0000 000000
2017-10-09 03:28:04,0.00,0.23,0.00,19.79,23.28,26.50,14.10,45.76,1021.99,2048.00,3416.00,3062.00,3492.00,599.50,605.34,23.64,0000 0000 0000 0000 000000
2017-10-09 03:33:06,0.00,0.23,0.00,19.80,23.29,26.52,14.15,45.63,1021.99,2048.00,3415.97,3062.00,3491.99,600.28,605.86,23.69,0000 0000 0000 0000 000000
2017-10-09 03:38:07,0.00,0.23,0.00,19.87,23.31,26.51,14.14,45.79,1021.99,2048.00,3415.93,3062.00,3491.97,599.25,604.95,23.74,0000 0000 0000 0000 000000
2017-10-09 03:43:08,0.01,0.23,0.00,19.83,23.32,26.48,14.12,45.76,1021.99,2047.99,3415.50,3061.98,3491.82,600.10,605.73,23.80,0000 0000 0000 0000 000000
2017-10-09 03:48:10,0.01,0.23,0.00,19.86,23.33,26.51,14.13,45.68,1021.98,2047.99,3415.07,3061.95,3491.49,599.64,605.22,23.85,0000 0000 0000 0000 000000
2017-10-09 03:53:11,0.01,0.23,0.00,19.84,23.34,26.54,14.14,45.83,1021.99,2047.98,3415.01,3061.73,3491.07,599.57,605.24,23.90,0000 0000 0000 0000 000000
2017-10-09 03:58:12,0.01,0.23,0.00,19.88,23.35,26.56,14.12,45.76,1021.96,2047.98,3415.00,3061.41,3491.01,599.34,604.89,23.95,0000 0000 0000 0000 000000
2017-10-09 04:03:14,0.00,0.23,0.00,19.85,23.37,26.56,14.08,45.73,1021.95,2047.95,3415.00,3061.14,3491.00,599.58,605.21,24.00,0000 0000 0000 0000 000000
2017-10-09 04:08:15,-0.00,0.23,0.00,19.90,23.37,26.58,14.16,45.75,1021.91,2047.92,3414.97,3061.03,3490.99,599.81,605.39,24.05,0000 0000 0000 0000 000000
2017-10-09 04:13:16,0.00,0.23,0.00,19.92,23.39,26.59,14.13,45.65,1021.86,2047.88,3414.90,3061.01,3490.98,600.16,605.65,24.10,0000 0000 0000 0000 000000
2017-10-09 04:18:18,-0.01,0.23,0.00,19.93,23.40,26.55,14.15,45.73,1021.80,2047.67,3414.26,3061.00,3490.85,600.11,605.46,24.15,0000 0000 0000 0000 000000
2017-10-09 04:23:19,-0.00,0.23,0.00,19.94,23.42,26.56,14.12,45.90,1021.75,2047.55,3414.02,3060.99,3490.40,599.90,605.18,24.20,0000 0000 0000 0000 000000
2017-10-09 04:28:20,-0.01,0.23,0.00,19.92,23.42,26.60,14.16,45.88,1021.71,2047.40,3414.01,3060.99,3490.11,599.88,605.26,24.25,0000 0000 0000 0000 000000
2017-10-09 04:33:21,-0.02,0.23,0.00,19.96,23.44,26.64,14.14,45.73,1021.65,2047.24,3414.00,3060.97,3490.02,600.09,605.04,24.30,0000 0000 0000 0000 000000
2017-10-09 04:38:23,-0.00,0.23,0.00,19.95,23.45,26.60,14.05,45.67,1021.60,2047.10,3413.97,3060.91,3490.00,599.80,604.98,24.35,0000 0000 0000 0000 000000
2017-10-09 04:43:24,0.00,0.23,0.00,20.02,23.47,26.68,14.24,45.73,1021.56,2047.04,3413.96,3060.71,3489.98,600.24,605.27,24.40,0000 0000 0000 0000 000000
2017-10-09 04:48:25,0.01,0.23,0.00,20.00,23.47,26.61,14.23,45.85,1021.55,2047.03,3413.83,3060.37,3489.97,600.29,605.45,24.45,0000 0000 0000 0000 000000
2017-10-09 04:53:26,0.01,0.23,0.00,20.01,23.49,26.66,14.14,45.79,1021.53,2047.01,3413.37,3060.07,3489.83,600.32,605.35,24.50,0000 0000 0000 0000 000000
2017-10-09 04:58:27,0.01,0.23,0.00,20.04,23.50,26.67,14.18,45.65,1021.51,2047.00,3413.14,3060.04,3489.35,600.00,604.87,24.55,0000 0000 0000 0000 000000
2017-10-09 05:03:29,0.00,0.23,0.00,20.05,23.52,26.69,14.09,45.77,1021.50,2047.00,3413.02,3060.00,3489.09,599.81,604.70,24.60,0000 0000 0000 0000 000000
2017-10-09 05:08:30,0.00,0.23,0.00,20.11,23.52,26.72,14.14,45.66,1021.50,2047.00,3413.00,3060.00,3489.00,600.10,604.78,24.65,0000 0000 0000 0000 000000
2017-10-09 05:13:31,0.00,0.23,0.00,20.08,23.54,26.68,14.12,45.77,1021.50,2047.00,3412.99,3060.00,3488.98,599.69,604.50,24.70,0000 0000 0000 0000 000000
2017-10-09 05:18:33,0.00,0.23,0.00,20.12,23.55,26.70,14.18,45.74,1021.50,2047.00,3412.96,3059.96,3488.96,600.12,604.91,24.75,0000 0000 0000 0000 000000
2017-10-09 05:23:34,0.01,0.23,0.00,20.11,23.57,26.64,14.08,45.69,1021.50,2047.00,3412.66,3059.92,3488.56,599.64,604.40,24.80,0000 0000 0000 0000 000000
2017-10-09 05:28:35,0.01,0.23,0.00,20.10,23.58,26.75,14.13,45.88,1021.50,2047.00,3412.28,3059.70,3488.17,599.89,604.65,24.85,0000 0000 0000 0000 000000
2017-10-09 05:33:37,0.01,0.23,0.00,20.16,23.60,26.78,14.13,45.60,1021.50,2047.00,3412.04,3059.24,3488.01,600.13,604.89,24.90,0000 0000 0000 0000 000000
2017-10-09 05:38:38,0.00,0.23,0.00,20.16,23.61,26.82,14.09,45.63,1021.50,2046.99,3412.00,3059.05,3488.00,599.48,604.21,24.95,0000 0000 0000 0000 000000
2017-10-09 05:43:39,0.00,0.23,0.00,20.14,23.62,26.80,14.10,45.73,1021.50,2046.98,3412.00,3059.01,3487.99,599.72,604.38,25.00,0000 0000 0000 0000 000000
2017-10-09 05:48:41,-0.00,0.23,0.00,20.21,23.64,26.80,14.21,45.75,1021.50,2046.97,3411.99,3059.00,3487.96,599.92,604.38,25.05,0000 0000 0000 0000 000000
2017-10-09 05:53:42,0.00,0.23,0.00,20.19,23.65,26.81,14.10,45.77,1021.50,2046.95,3411.91,3059.00,3487.61,600.08,604.61,25.10,0000 0000 0000 0000 000000
2017-10-09 05:58:44,-0.00,0.23,0.00,20.25,23.67,26.84,14.13,45.74,1021.50,2046.83,3411.50,3058.99,3487.11,600.32,604.83,25.15,0000 0000 0000 0000 000000
2017-10-09 06:03:45,-0.01,0.23,0.00,20.24,23.69,26.82,14.11,45.72,1021.50,2046.56,3411.09,3058.98,3487.01,599.78,604.39,25.20,0000 0000 0000 0000 000000
2017-10-09 06:08:46,-0.03,0.23,0.00,20.25,23.70,26.85,14.14,45.64,1021.50,2046.21,3411.00,3058.59,3487.00,599.81,604.39,25.25,0000 0000 0000 0000 000000
2017-10-09 06:13:47,0.00,0.23,0.00,20.31,23.72,26.87,14.13,45.72,1021.50,2046.06,3410.99,3058.13,3486.97,599.64,604.07,25.30,0000 0000 0000 0000 000000
2017-10-09 06:18:49,0.01,0.23,0.00,20.29,23.73,26.89,14.06,45.73,1021.50,2046.04,3410.98,3058.06,3486.67,599.76,604.37,25.35,0000 0000 0000 0000 000000
2017-10-09 06:23:50,0.00,0.23,0.00,20.25,23.75,26.94,14.06,45.72,1021.49,2046.01,3410.90,3058.01,3486.12,599.90,604.37,25.40,0000 0000 0000 0000 000000
2017-10-09 06:28:51,0.01,0.23,0.00,20.14,23.75,27.00,14.11,45.77,1021.48,2046.00,3410.28,3058.00,3486.01,600.10,604.84,25.45,0000 0000 0000 0000 000000
2017-10-09 06:33:52,0.00,0.23,0.00,20.05,23.77,27.03,14.26,45.81,1021.42,2046.00,3410.03,3057.99,3486.00,600.30,605.15,25.50,0000 0000 0000 0000 000000
2017-10-09 06:38:54,0.00,0.23,0.00,20.05,23.76,27.04,14.04,45.76,1021.35,2046.00,3410.00,3057.98,3485.98,599.42,604.30,25.55,0000 0000 0000 0000 000000
2017-10-09 06:43:55,0.00,0.23,0.00,20.02,23.75,27.00,14.15,45.69,1021.35,2046.00,3409.99,3057.97,3485.94,600.11,605.02,25.60,0000 0000 0000 0000 000000
2017-10-09 06:48:56,0.00,0.23,0.00,19.92,23.75,26.98,14.05,45.74,1021.28,2046.00,3409.98,3057.97,3485.84,599.57,604.54,25.65,0000 0000 0000 0000 000000
2017-10-09 06:53:58,0.01,0.23,0.00,19.92,23.75,26.96,14.20,45.97,1021.27,2046.00,3409.92,3057.94,3485.51,600.34,605.34,25.70,0000 0000 0000 0000 000000
2017-10-09 06:58:59,0.01,0.23,0.00,19.90,23.75,26.93,14.14,45.74,1021.34,2046.00,3409.88,3057.94,3485.41,599.76,604.76,25.75,0000 0000 0000 0000 000000
2017-10-09 07:04:00,0.07,0.23,0.00,19.93,23.73,26.91,14.16,45.77,1021.19,2046.00,3408.01,3057.25,3484.44,600.14,605.11,25.80,0000 0000 0000 0000 000000
2017-10-09 07:09:01,0.68,0.26,0.00,19.92,23.72,26.91,14.20,45.78,1021.04,2046.00,3389.93,3049.00,3475.87,600.10,605.08,25.85,0000 0000 0000 0000 000000
2017-10-09 07:14:03,0.05,0.27,0.00,19.90,23.72,26.91,14.19,45.91,1021.02,2046.00,3387.04,3047.89,3474.19,599.69,604.66,25.90,0000 0000 0000 0000 000000
2017-10-09 07:19:04,0.02,0.27,0.00,19.93,23.70,26.89,14.23,45.77,1021.01,2046.01,3386.27,3047.53,3474.00,600.40,605.31,25.95,0000 0000 0000 0000 000000
2017-10-09 07:24:05,0.01,0.27,0.00,19.90,23.70,26.87,14.15,45.90,1021.01,2046.01,3386.04,3047.19,3473.97,600.11,604.92,26.00,0000 0000 0000 0000 000000
2017-10-09 07:29:06,0.00,0.27,0.00,19.95,23.70,26.86,14.08,45.74,1021.01,2046.03,3386.00,3047.10,3473.86,599.91,604.70,26.05,0000 0000 0000 0000 000000
2017-10-09 07:34:07,0.01,0.28,0.00,19.92,23.68,26.85,14.06,45.71,1021.01,2046.00,3386.00,3047.02,3473.19,599.93,604.91,26.10,0000 0000 0000 0000 000000
2017-10-09 07:39:09,0.00,0.28,0.00,19.96,23.67,26.86,14.10,45.74,1021.01,2046.02,3385.98,3047.00,3473.05,599.81,604.56,26.15,0000 0000 0000 0000 000000
2017-10-09 07:44:10,0.00,0.28,0.00,19.94,23.67,26.87,14.14,45.83,1020.95,2046.02,3385.83,3047.00,3473.02,600.01,604.87,26.20,0000 0000 0000 0000 000000
2017-10-09 07:49:11,0.01,0.28,0.00,19.91,23.67,26.90,14.05,45.69,1020.71,2046.02,3385.30,3046.99,3473.00,599.64,604.45,26.25,0000 0000 0000 0000 000000
2017-10-09 07:54:12,0.00,0.28,0.00,19.95,23.67,26.87,14.13,45.99,1020.65,2046.02,3385.03,3046.99,3472.99,599.75,604.47,26.30,0000 0000 0000 0000 000000
2017-10-09 07:59:13,0.00,0.28,0.00,19.92,23.67,26.87,14.11,45.97,1020.57,2046.05,3385.00,3046.98,3472.97,599.81,604.45,26.35,0000 0000 0000 0000 000000
2017-10-09 08:04:15,0.00,0.28,0.00,19.97,23.66,26.87,14.09,45.88,1020.55,2046.04,3385.00,3046.95,3472.92,600.06,604.50,26.40,0000 0000 0000 0000 000000
2017-10-09 08:09:16,0.04,0.28,0.00,19.94,23.65,26.87,14.14,46.05,1020.53,2046.08,3384.46,3046.53,3472.28,599.89,604.49,26.45,0000 0000 0000 0000 000000
2017-10-09 08:14:17,0.09,0.28,0.00,19.97,23.65,26.88,14.19,46.01,1020.54,2046.08,3381.80,3045.07,3471.04,600.36,604.89,26.51,0000 0000 0000 0000 000000
2017-10-09 08:19:19,0.01,0.28,0.00,19.97,23.65,26.86,14.16,46.02,1020.53,2046.06,3381.08,3045.00,3470.78,599.75,604.30,26.56,0000 0000 0000 0000 000000
2017-10-09 08:24:20,0.02,0.29,0.00,19.90,23.65,26.86,14.13,46.04,1020.52,2046.30,3381.03,3045.00,3470.71,599.73,604.35,26.61,0000 0000 0000 0000 000000
2017-10-09 08:29:22,0.02,0.29,0.00,19.92,23.64,26.86,14.19,46.16,1020.52,2046.41,3381.00,3044.99,3470.36,599.90,604.52,26.66,0000 0000 0000 0000 000000
2017-10-09 08:34:23,0.03,0.29,0.00,19.88,23.63,26.87,14.19,46.01,1020.52,2046.67,3381.00,3044.99,3470.14,600.31,605.01,26.71,0000 0000 0000 0000 000000
2017-10-09 08:39:24,0.01,0.29,0.00,19.89,23.62,26.83,14.15,46.03,1020.52,2046.93,3380.99,3044.99,3470.08,600.04,604.67,26.76,0000 0000 0000 0000 000000
2017-10-09 08:44:25,0.00,0.29,0.00,19.87,23.62,26.83,14.19,46.07,1020.52,2046.97,3380.98,3044.97,3470.05,600.31,604.90,26.81,0000 0000 0000 0000 000000
2017-10-09 08:49:26,-0.00,0.29,0.00,19.83,23.61,26.82,14.22,46.00,1020.52,2046.96,3380.94,3044.97,3470.01,600.52,605.18,26.86,0000 0000 0000 0000 000000
2017-10-09 08:54:27,0.01,0.29,0.00,19.84,23.60,26.80,14.24,46.02,1020.51,2046.98,3380.59,3044.96,3470.00,600.00,604.75,26.91,0000 0000 0000 0000 000000
2017-10-09 08:59:28,0.00,0.29,0.00,19.79,23.60,26.82,14.14,46.00,1020.35,2046.98,3380.14,3044.93,3470.00,599.80,604.63,26.96,0000 0000 0000 0000 000000
2017-10-09 09:04:30,0.01,0.29,0.00,19.80,23.58,26.76,14.22,46.02,1020.07,2046.98,3380.01,3044.54,3469.98,600.46,605.01,27.01,0000 0000 0000 0000 000000
2017-10-09 09:09:31,0.01,0.29,0.00,19.76,23.57,26.78,14.21,46.14,1020.05,2046.97,3380.00,3044.21,3469.85,600.03,604.51,27.06,0000 0000 0000 0000 000000
2017-10-09 09:14:32,0.01,0.29,0.00,19.75,23.56,26.72,14.16,46.39,1020.04,2046.98,3380.00,3044.09,3469.44,599.96,604.70,27.11,0000 0000 0000 0000 000000
2017-10-09 09:19:34,0.00,0.29,0.00,19.73,23.55,26.71,14.11,46.13,1020.04,2046.98,3379.98,3044.03,3469.07,599.51,604.20,27.16,0000 0000 0000 0000 000000
2017-10-09 09:24:35,0.00,0.29,0.00,19.68,23.54,26.67,14.23,46.18,1020.04,2046.99,3379.84,3044.02,3469.02,600.23,605.00,27.21,0000 0000 0000 0000 000000
2017-10-09 09:29:36,0.00,0.29,0.00,19.66,23.52,26.69,14.09,45.99,1020.04,2046.99,3379.65,3044.02,3469.01,599.60,604.45,27.26,0000 0000 0000 0000 000000
2017-10-09 09:34:38,0.00,0.29,0.00,19.63,23.51,26.64,14.15,46.08,1020.03,2046.99,3379.21,3044.00,3469.00,599.88,604.75,27.31,0000 0000 0000 0000 000000
2017-10-09 09:39:39,0.00,0.29,0.00,19.61,23.50,26.64,14.12,46.02,1020.00,2046.99,3379.05,3044.00,3469.00,600.07,605.04,27.36,0000 0000 0000 0000 000000
2017-10-09 09:44:40,0.00,0.29,0.00,19.59,23.48,26.61,14.15,45.97,1019.96,2046.99,3379.01,3044.00,3468.99,599.97,604.98,27.41,0000 0000 0000 0000 000000
2017-10-09 09:49:41,0.00,0.29,0.00,19.53,23.47,26.61,14.14,46.02,1019.91,2046.99,3379.00,3044.00,3468.98,599.69,604.79,27.46,0000 0000 0000 0000 000000
2017-10-09 09:54:42,0.00,0.29,0.00,19.52,23.45,26.56,14.12,46.04,1019.89,2046.99,3378.99,3043.99,3468.90,599.76,604.72,27.51,0000 0000 0000 0000 000000
2017-10-09 09:59:44,0.00,0.29,0.00,19.51,23.43,26.54,14.10,46.02,1019.93,2046.99,3378.98,3043.99,3468.72,600.33,605.43,27.56,0000 0000 0000 0000 000000
2017-10-09 10:04:45,0.01,0.29,0.00,19.50,23.42,26.54,14.11,45.83,1019.89,2046.99,3378.91,3043.98,3468.23,599.90,605.01,27.61,0000 0000 0000 0000 000000
2017-10-09 10:09:46,0.01,0.29,0.00,19.52,23.40,26.54,14.15,46.01,1019.69,2046.99,3378.32,3043.98,3468.03,599.92,604.94,27.66,0000 0000 0000 0000 000000
2017-10-09 10:14:47,0.00,0.29,0.00,19.48,23.37,26.50,14.09,45.99,1019.69,2047.00,3378.10,3043.91,3468.00,599.35,604.36,27.71,0000 0000 0000 0000 000000
2017-10-09 10:19:49,-0.00,0.29,0.00,19.47,23.37,26.50,14.18,45.91,1019.78,2047.03,3378.01,3043.90,3468.00,599.93,605.02,27.76,0000 0000 0000 0000 000000
2017-10-09 10:24:50,0.01,0.29,0.00,19.44,23.35,26.48,14.10,45.95,1019.64,2047.08,3378.01,3043.77,3468.00,599.83,604.91,27.81,0000 0000 0000 0000 000000
2017-10-09 10:29:52,0.03,0.30,0.00,19.44,23.33,26.47,14.16,45.93,1019.56,2047.27,3378.00,3043.60,3468.00,599.76,604.95,27.86,0000 0000 0000 0000 000000
2017-10-09 10:34:53,0.04,0.30,0.00,19.44,23.32,26.46,14.16,46.02,1019.55,2047.66,3377.99,3043.43,3467.98,599.87,604.86,27.91,0000 0000 0000 0000 000000
2017-10-09 10:39:54,0.03,0.30,0.00,19.40,23.29,26.45,14.19,45.83,1019.54,2047.76,3377.90,3043.09,3467.65,600.30,605.49,27.96,0000 0000 0000 0000 000000
2017-10-09 10:44:56,0.03,0.30,0.00,19.40,23.28,26.42,14.19,45.97,1019.53,2047.92,3377.25,3043.01,3467.06,600.48,605.59,28.01,0000 0000 0000 0000 000000
2017-10-09 10:49:57,0.00,0.30,0.00,19.36,23.27,26.40,14.17,46.03,1019.50,2047.96,3377.02,3043.00,3467.00,599.75,604.89,28.06,0000 0000 0000 0000 000000
2017-10-09 10:54:59,0.00,0.30,0.00,19.38,23.25,26.40,14.17,46.01,1019.39,2047.98,3377.00,3042.99,3466.97,599.73,604.85,28.11,0000 0000 0000 0000 000000
2017-10-09 11:00:00,0.01,0.30,0.00,19.35,23.24,26.38,14.19,46.00,1019.22,2047.98,3376.94,3042.76,3466.51,599.91,605.05,28.16,0000 0000 0000 0000 000000
2017-10-09 11:05:01,0.03,0.30,0.00,19.34,23.22,26.40,14.10,45.92,1019.08,2047.98,3376.29,3042.11,3466.04,599.70,604.52,28.21,0000 0000 0000 0000 000000
2017-10-09 11:10:03,0.00,0.30,0.00,19.32,23.21,26.37,14.15,46.08,1019.06,2047.99,3376.02,3042.02,3465.99,599.98,604.98,28.26,0000 0000 0000 0000 000000
2017-10-09 11:15:04,-0.00,0.30,0.00,19.29,23.19,26.38,14.14,46.02,1019.04,2047.99,3376.00,3042.00,3465.96,599.94,604.90,28.31,0000 0000 0000 0000 000000
2017-10-09 11:20:05,0.00,0.30,0.00,19.31,23.17,26.35,14.10,46.09,1018.79,2048.03,3376.00,3042.00,3465.94,600.03,604.86,28.36,0000 0000 0000 0000 000000
2017-10-09 11:25:07,0.00,0.31,0.00,19.25,23.16,26.31,14.17,46.18,1018.64,2048.02,3375.99,3042.00,3465.79,600.02,604.96,28.41,0000 0000 0000 0000 000000
2017-10-09 11:30:08,0.01,0.31,0.00,19.23,23.14,26.31,14.24,46.29,1018.61,2048.04,3375.92,3042.00,3465.28,600.28,605.21,28.46,0000 0000 0000 0000 000000
2017-10-09 11:35:09,0.01,0.31,0.00,19.19,23.12,26.27,14.18,46.26,1018.60,2048.07,3375.64,3041.98,3465.03,600.17,605.13,28.51,0000 0000 0000 0000 000000
2017-10-09 11:40:11,0.04,0.31,0.00,19.17,23.11,26.23,14.21,46.38,1018.57,2048.28,3375.18,3041.98,3465.00,600.22,605.19,28.56,0000 0000 0000 0000 000000
2017-10-09 11:45:12,0.01,0.31,0.00,19.13,23.09,26.23,14.21,46.40,1018.57,2048.49,3375.01,3041.95,3465.00,599.96,605.07,28.61,0000 0000 0000 0000 000000
2017-10-09 11:50:13,0.04,0.31,0.00,19.10,23.07,26.15,14.17,46.26,1018.57,2048.77,3375.00,3041.65,3464.96,600.06,605.23,28.66,0000 0000 0000 0000 000000
2017-10-09 11:55:14,0.02,0.31,0.00,19.06,23.04,26.12,14.20,46.48,1018.38,2048.94,3374.98,3041.22,3464.77,600.22,605.37,28.71,0000 0000 0000 0000 000000
2017-10-09 12:00:16,0.00,0.31,0.00,19.01,23.02,26.08,14.28,46.56,1018.27,2048.98,3374.96,3041.14,3464.24,600.80,605.87,28.76,0000 0000 0000 0000 000000
2017-10-09 12:05:17,0.00,0.31,0.00,18.96,23.00,26.06,14.26,46.48,1018.11,2048.97,3374.66,3041.08,3464.04,600.35,605.63,28.81,0000 0000 0000 0000 000000
2017-10-09 12:10:18,0.01,0.31,0.00,18.94,22.98,26.03,14.13,46.38,1018.10,2048.99,3374.09,3041.02,3464.01,599.83,604.98,28.86,0000 0000 0000 0000 000000
2017-10-09 12:15:19,0.00,0.31,0.00,18.91,22.95,26.01,14.17,46.42,1018.09,2048.99,3374.02,3041.01,3464.00,599.94,605.12,28.91,0000 0000 0000 0000 000000
2017-10-09 12:20:20,0.00,0.31,0.00,18.89,22.92,25.91,14.20,46.42,1018.08,2048.99,3374.00,3041.00,3464.00,600.04,605.25,28.96,0000 0000 0000 0000 000000
2017-10-09 12:25:22,0.00,0.31,0.00,18.83,22.90,25.91,14.18,46.23,1018.08,2049.00,3374.00,3041.00,3463.98,600.02,605.36,29.01,0000 0000 0000 0000 000000
2017-10-09 12:30:23,0.01,0.31,0.00,18.84,22.87,25.88,14.18,46.35,1018.04,2049.08,3373.99,3041.00,3463.97,599.72,605.19,29.07,0000 0000 0000 0000 000000
2017-10-09 12:35:24,0.01,0.31,0.00,18.82,22.84,25.91,14.18,46.41,1017.81,2049.28,3373.99,3041.00,3463.97,599.80,605.02,29.11,0000 0000 0000 0000 000000
2017-10-09 12:40:25,0.04,0.32,0.00,18.78,22.82,25.88,14.21,46.38,1017.71,2049.66,3373.97,3041.00,3463.86,600.09,605.34,29.17,0000 0000 0000 0000 000000
2017-10-09 12:45:27,0.02,0.32,0.00,18.74,22.79,25.83,14.19,46.34,1017.61,2049.91,3373.90,3041.00,3463.78,600.37,605.75,29.22,0000 0000 0000 0000 000000
2017-10-09 12:50:28,0.01,0.32,0.00,18.73,22.77,25.80,14.11,46.48,1017.59,2049.97,3373.66,3041.00,3463.50,599.84,605.24,29.27,0000 0000 0000 0000 000000
2017-10-09 12:55:29,0.01,0.32,0.00,18.71,22.74,25.77,14.23,46.35,1017.59,2049.98,3373.10,3041.00,3463.07,600.07,605.50,29.32,0000 0000 0000 0000 000000